sat.trackr.live / text

‹ back to catalog

ONEWEB-0262

NORAD 48980 · 2021-060P

PAYLOAD ACTIVE UNKNOWN

§ Identity

Operator
Country
UK
Launch date
2021-07-01
Launch site
VOSTO
Launch vehicle
Mass (kg)
RCS (m²)

Purposes: comms

External: N2YO · Heavens-Above · Gunter

§ Orbital elements

Epoch: 2026-09-20T04:30:11.073024Z

Period
109.37 min
Inclination
87.9157°
Eccentricity
0.0001762
Mean motion
13.16594298 rev/d
Perigee alt
1,196.4 km
Apogee alt
1,199.1 km
Semi-major
7,575.9 km
B*
-8.2713e-5
RAAN
209.9093°
Arg perigee
71.2553°
Mean anomaly
288.8769°
Rev number
25,212

§ Raw data

ONEWEB-02621 48980U 21060P   26263.18762816 -.00000019  00000+0 -82713-4 0  99922 48980  87.9157 209.9093 0001762  71.2553 288.8769 13.16594298252127

JSON: /api/v1/satellites/48980 · /tle

For live sub-satellite position, see the globe view (requires WebGL).

§ Visibility from observer

Set your observer location to see the next 7 days of passes ≥ 10°. The values pass through the URL so the page stays shareable.

No JS? Fill the form by hand. The geolocation button needs JavaScript.